Time,TemperatureF,DewpointF,PressureIn,WindDirection,WindDirectionDegrees,WindSpeedMPH,WindSpeedGustMPH,Humidity,HourlyPrecipIn,Conditions,Clouds,dailyrainin,SoftwareType,DateUTC
2013-08-26 00:14:00,68.0,57.0,30.15,WSW,249,3.0,8.0,68,0.00,,,0.00,,2013-08-26 04:14:00,
2013-08-26 00:44:00,69.0,57.0,30.18,WSW,252,4.0,13.0,66,0.00,,,0.00,,2013-08-26 04:44:00,
2013-08-26 00:53:00,69.0,58.0,30.19,WSW,249,3.0,10.0,68,0.00,,,0.00,,2013-08-26 04:53:00,
2013-08-26 01:13:00,67.0,58.0,30.19,WSW,257,2.0,7.0,73,0.00,,,0.00,,2013-08-26 05:13:00,
2013-08-26 01:23:00,65.0,58.0,30.20,WNW,293,1.0,6.0,78,0.00,,,0.00,,2013-08-26 05:23:00,
2013-08-26 01:44:00,64.0,59.0,30.20,West,275,0.0,3.0,84,0.00,,,0.00,,2013-08-26 05:44:00,
2013-08-26 01:52:00,62.0,59.0,30.20,WSW,242,3.0,6.0,89,0.02,,,0.02,,2013-08-26 05:52:00,
2013-08-26 02:12:00,62.0,58.0,30.19,WNW,283,6.0,11.0,87,0.05,,,0.05,,2013-08-26 06:12:00,
2013-08-26 02:22:00,62.0,57.0,30.16,SSW,194,9.0,19.0,84,0.07,,,0.07,,2013-08-26 06:22:00,
2013-08-26 02:42:00,62.0,58.0,30.16,NE,40,8.0,15.0,86,0.07,,,0.07,,2013-08-26 06:42:00,
2013-08-26 02:52:00,63.0,58.0,30.14,SW,224,5.0,15.0,84,0.05,,,0.07,,2013-08-26 06:52:00,
2013-08-26 03:11:00,64.0,58.0,30.14,West,265,2.0,16.0,80,0.02,,,0.07,,2013-08-26 07:11:00,
2013-08-26 03:22:00,64.0,56.0,30.10,West,263,3.0,9.0,76,0.00,,,0.07,,2013-08-26 07:22:00,
2013-08-26 03:42:00,64.0,56.0,30.14,WSW,237,5.0,15.0,76,0.00,,,0.07,,2013-08-26 07:42:00,
2013-08-26 03:52:00,63.0,57.0,30.14,WNW,287,1.0,5.0,81,0.01,,,0.08,,2013-08-26 07:52:00,
2013-08-26 04:12:00,61.0,57.0,30.14,West,262,1.0,3.0,88,0.03,,,0.10,,2013-08-26 08:12:00,
2013-08-26 04:22:00,61.0,58.0,30.14,WSW,240,2.0,10.0,89,0.04,,,0.11,,2013-08-26 08:22:00,
2013-08-26 04:42:00,61.0,58.0,30.14,WSW,258,5.0,14.0,89,0.04,,,0.11,,2013-08-26 08:42:00,
2013-08-26 04:52:00,61.0,58.0,30.14,WSW,246,6.0,11.0,91,0.05,,,0.13,,2013-08-26 08:52:00,
2013-08-26 05:11:00,61.0,59.0,30.13,WSW,253,6.0,12.0,92,0.04,,,0.14,,2013-08-26 09:11:00,
2013-08-26 05:22:00,61.0,58.0,30.11,WSW,251,7.0,14.0,91,0.03,,,0.14,,2013-08-26 09:22:00,
2013-08-26 05:43:00,62.0,59.0,30.10,West,260,8.0,16.0,89,0.03,,,0.14,,2013-08-26 09:43:00,
2013-08-26 05:54:00,63.0,59.0,30.09,SW,235,5.0,19.0,88,0.01,,,0.14,,2013-08-26 09:54:00,
2013-08-26 06:13:00,63.0,59.0,30.09,WSW,240,4.0,18.0,86,0.00,,,0.14,,2013-08-26 10:13:00,
2013-08-26 06:23:00,64.0,59.0,30.08,WSW,237,10.0,20.0,84,0.00,,,0.14,,2013-08-26 10:23:00,
2013-08-26 06:42:00,64.0,59.0,30.03,West,276,7.0,15.0,83,0.00,,,0.14,,2013-08-26 10:42:00,
2013-08-26 06:52:00,64.0,59.0,30.03,WSW,241,4.0,16.0,83,0.00,,,0.14,,2013-08-26 10:52:00,
2013-08-26 07:12:00,64.0,59.0,30.07,West,272,4.0,14.0,84,0.00,,,0.14,,2013-08-26 11:12:00,
2013-08-26 07:22:00,63.0,58.0,30.08,WSW,237,7.0,14.0,85,0.00,,,0.14,,2013-08-26 11:22:00,
2013-08-26 07:52:00,65.0,59.0,30.07,WSW,242,7.0,17.0,81,0.00,,,0.14,,2013-08-26 11:52:00,
2013-08-26 08:12:00,65.0,58.0,30.07,WSW,254,10.0,20.0,79,0.00,,,0.14,,2013-08-26 12:12:00,
2013-08-26 08:22:00,66.0,59.0,30.07,WSW,254,10.0,19.0,78,0.00,,,0.14,,2013-08-26 12:22:00,
2013-08-26 08:52:00,66.0,59.0,30.06,WSW,249,9.0,20.0,79,0.00,,,0.14,,2013-08-26 12:52:00,
2013-08-26 09:12:00,66.0,60.0,30.06,WSW,241,7.0,18.0,80,0.00,,,0.14,,2013-08-26 13:12:00,
2013-08-26 09:22:00,66.0,60.0,30.00,SW,231,10.0,21.0,80,0.00,,,0.14,,2013-08-26 13:22:00,
2013-08-26 09:42:00,66.0,60.0,30.04,WSW,254,8.0,22.0,81,0.00,,,0.14,,2013-08-26 13:42:00,
2013-08-26 09:52:00,66.0,60.0,30.04,WNW,296,7.0,16.0,81,0.00,,,0.14,,2013-08-26 13:52:00,
2013-08-26 10:11:00,67.0,61.0,30.04,SW,233,6.0,17.0,81,0.00,,,0.14,,2013-08-26 14:11:00,
2013-08-26 10:22:00,67.0,61.0,30.05,SW,224,4.0,14.0,82,0.00,,,0.14,,2013-08-26 14:22:00,
2013-08-26 10:42:00,68.0,62.0,30.05,WSW,253,6.0,13.0,81,0.00,,,0.14,,2013-08-26 14:42:00,
2013-08-26 10:52:00,68.0,62.0,30.04,WNW,301,7.0,10.0,81,0.00,,,0.14,,2013-08-26 14:52:00,
2013-08-26 11:12:00,70.0,64.0,30.04,West,265,4.0,10.0,81,0.00,,,0.14,,2013-08-26 15:12:00,
2013-08-26 11:22:00,70.0,63.0,30.03,NW,321,6.0,18.0,79,0.00,,,0.14,,2013-08-26 15:22:00,
2013-08-26 11:47:00,71.0,64.0,30.03,WSW,258,7.0,13.0,78,0.00,,,0.14,,2013-08-26 15:47:00,
2013-08-26 11:59:00,72.0,65.0,30.03,WNW,298,3.0,10.0,79,0.00,,,0.14,,2013-08-26 15:59:00,
2013-08-26 12:17:00,72.0,65.0,30.02,WSW,246,3.0,7.0,78,0.00,,,0.14,,2013-08-26 16:17:00,
2013-08-26 12:29:00,72.0,65.0,30.02,NW,315,3.0,8.0,78,0.00,,,0.14,,2013-08-26 16:29:00,
2013-08-26 12:48:00,73.0,65.0,29.96,NW,324,3.0,9.0,76,0.00,,,0.14,,2013-08-26 16:48:00,
2013-08-26 12:59:00,74.0,66.0,30.01,WSW,256,2.0,11.0,75,0.00,,,0.14,,2013-08-26 16:59:00,
2013-08-26 13:12:00,74.0,66.0,30.01,West,276,3.0,10.0,76,0.00,,,0.14,,2013-08-26 17:12:00,
2013-08-26 13:24:00,74.0,66.0,30.01,NNW,347,4.0,8.0,75,0.00,,,0.14,,2013-08-26 17:24:00,
2013-08-26 13:43:00,74.0,66.0,30.00,WNW,301,3.0,10.0,77,0.00,,,0.14,,2013-08-26 17:43:00,
2013-08-26 13:53:00,74.0,66.0,29.99,West,273,3.0,6.0,76,0.00,,,0.14,,2013-08-26 17:53:00,
2013-08-26 14:12:00,73.0,66.0,29.99,North,358,3.0,8.0,78,0.00,,,0.14,,2013-08-26 18:12:00,
2013-08-26 14:22:00,73.0,66.0,29.99,WNW,284,2.0,7.0,79,0.00,,,0.14,,2013-08-26 18:22:00,
2013-08-26 14:42:00,72.0,65.0,29.98,West,272,3.0,8.0,79,0.00,,,0.14,,2013-08-26 18:42:00,
2013-08-26 14:52:00,72.0,65.0,29.98,SW,234,3.0,8.0,80,0.00,,,0.14,,2013-08-26 18:52:00,
2013-08-26 15:11:00,72.0,66.0,29.98,WNW,290,1.0,4.0,81,0.00,,,0.14,,2013-08-26 19:11:00,
2013-08-26 15:22:00,71.0,65.0,29.98,WNW,282,3.0,10.0,82,0.00,,,0.14,,2013-08-26 19:22:00,
2013-08-26 15:42:00,72.0,66.0,29.91,West,272,1.0,6.0,82,0.00,,,0.14,,2013-08-26 19:42:00,
2013-08-26 15:52:00,73.0,67.0,29.97,West,278,1.0,12.0,82,0.00,,,0.14,,2013-08-26 19:52:00,
2013-08-26 16:11:00,72.0,66.0,29.96,WNW,286,1.0,7.0,82,0.00,,,0.14,,2013-08-26 20:11:00,
2013-08-26 16:22:00,73.0,67.0,29.96,WNW,290,3.0,8.0,81,0.00,,,0.14,,2013-08-26 20:22:00,
2013-08-26 16:43:00,73.0,67.0,29.96,WSW,252,2.0,7.0,81,0.00,,,0.14,,2013-08-26 20:43:00,
2013-08-26 16:52:00,73.0,67.0,29.96,WNW,293,3.0,8.0,81,0.00,,,0.14,,2013-08-26 20:52:00,
2013-08-26 17:12:00,73.0,67.0,29.95,WSW,245,2.0,7.0,82,0.00,,,0.14,,2013-08-26 21:12:00,
2013-08-26 17:22:00,73.0,66.0,29.95,WSW,253,3.0,6.0,80,0.00,,,0.14,,2013-08-26 21:22:00,
2013-08-26 17:44:00,73.0,67.0,29.95,West,278,2.0,7.0,81,0.00,,,0.14,,2013-08-26 21:44:00,
2013-08-26 17:55:00,72.0,67.0,29.95,WSW,256,2.0,5.0,83,0.00,,,0.14,,2013-08-26 21:55:00,
2013-08-26 18:16:00,72.0,67.0,29.95,West,260,1.0,10.0,84,0.00,,,0.14,,2013-08-26 22:16:00,
2013-08-26 18:26:00,72.0,67.0,29.94,WSW,247,3.0,9.0,84,0.00,,,0.14,,2013-08-26 22:26:00,
2013-08-26 18:42:00,72.0,67.0,29.94,WSW,254,4.0,7.0,84,0.00,,,0.14,,2013-08-26 22:42:00,
2013-08-26 18:53:00,71.0,67.0,29.88,WNW,296,2.0,9.0,86,0.00,,,0.14,,2013-08-26 22:53:00,
2013-08-26 19:13:00,71.0,67.0,29.94,West,265,5.0,9.0,86,0.00,,,0.14,,2013-08-26 23:13:00,
2013-08-26 19:22:00,71.0,67.0,29.94,WSW,246,2.0,9.0,86,0.00,,,0.14,,2013-08-26 23:22:00,
2013-08-26 19:52:00,71.0,67.0,29.94,WSW,249,4.0,12.0,87,0.00,,,0.14,,2013-08-26 23:52:00,
2013-08-26 20:11:00,71.0,67.0,29.94,SW,228,5.0,13.0,87,0.00,,,0.14,,2013-08-27 00:11:00,
2013-08-26 20:22:00,71.0,67.0,29.93,WSW,237,4.0,13.0,87,0.00,,,0.14,,2013-08-27 00:22:00,
2013-08-26 20:42:00,71.0,67.0,29.93,West,269,2.0,6.0,88,0.00,,,0.14,,2013-08-27 00:42:00,
2013-08-26 20:52:00,70.0,66.0,29.94,West,265,2.0,8.0,88,0.00,,,0.14,,2013-08-27 00:52:00,
2013-08-26 21:12:00,70.0,67.0,29.94,WSW,248,4.0,7.0,89,0.00,,,0.14,,2013-08-27 01:12:00,
2013-08-26 21:22:00,70.0,67.0,29.94,WSW,256,4.0,8.0,89,0.00,,,0.14,,2013-08-27 01:22:00,
2013-08-26 21:42:00,70.0,67.0,29.93,SW,232,4.0,13.0,89,0.00,,,0.14,,2013-08-27 01:42:00,
2013-08-26 21:52:00,70.0,67.0,29.94,WNW,298,7.0,12.0,90,0.00,,,0.14,,2013-08-27 01:52:00,
2013-08-26 22:12:00,69.0,66.0,29.88,WSW,255,5.0,13.0,90,0.00,,,0.14,,2013-08-27 02:12:00,
2013-08-26 22:22:00,69.0,66.0,29.94,SW,233,6.0,13.0,90,0.00,,,0.14,,2013-08-27 02:22:00,
2013-08-26 22:42:00,70.0,67.0,29.94,SW,225,6.0,13.0,90,0.00,,,0.14,,2013-08-27 02:42:00,
2013-08-26 22:52:00,70.0,67.0,29.93,WSW,255,6.0,13.0,89,0.00,,,0.14,,2013-08-27 02:52:00,
2013-08-26 23:12:00,70.0,67.0,29.93,SSW,208,4.0,11.0,89,0.00,,,0.14,,2013-08-27 03:12:00,
2013-08-26 23:23:00,70.0,67.0,29.93,WSW,245,5.0,10.0,89,0.00,,,0.14,,2013-08-27 03:23:00,
2013-08-26 23:44:00,69.0,66.0,29.93,West,269,1.0,6.0,89,0.00,,,0.14,,2013-08-27 03:44:00,
2013-08-26 23:58:00,69.0,66.0,29.92,WSW,251,4.0,9.0,90,0.00,,,0.14,,2013-08-27 03:58:00,